[[{"header":{"parameterUnit":"m.s-1","parameterCategory":1,"la1":30.2991,"la2":30.254,"lo1":-89.0895,"lo2":-89.0444,"dy":0.0017,"dx":0.0017,"nx":28,"ny":28,"refTime":"2025-03-18T21:00:00:Z","depth":0,"parameterNumber":2,"parameterNumberName":"U-component_of_WINDS"},"data":[0,0,0,0,0,0,0,0,0,0,0,0,0,0,0,0,0,0,0,0,0,0,0,0,0,0,0,0,0,0,0,0,0,0,0,0,0,0,0,0,0,0,0,0,0,0,0,0,0,0,0,0,0,0,0,0,0,0,0.9754,0.9754,0,0.9708,0.9707,0.9707,0.9641,0.964,0.9639,0.9638,0.9592,0.9592,0.9592,0,0,0,0,0,0,0,0,0,0,0,0,0,0.9788,0.9788,0.9754,0.9754,0.9753,0.9708,0.9707,0.9707,0.9641,0.964,0.9639,0.9637,0.9592,0.9592,0.9592,0,0,0,0,0,0,0,0,0,0,0,0,0,0.9761,0.9788,0.9754,0.9715,0.9711,0.9708,0.9707,0.9706,0.9642,0.964,0.9638,0.9637,0.9592,0.9592,0.9592,0.9623,0,0,0.9591,0.9591,0,0,0,0,0,0,0,0,0.9762,0.976,0.9722,0.9718,0.9713,0.9679,0.9702,0.9679,0.9642,0.9668,0.9638,0.9636,0.9622,0.9619,0.9614,0.9621,0.9619,0.9591,0.9591,0.959,0.959,0,0,0,0,0,0,0,0.9764,0.9761,0.9736,0.9721,0.9716,0.97,0.9695,0.9697,0.9655,0.9666,0.9661,0.9656,0.962,0.9615,0.9613,0.9619,0.9591,0.959,0.959,0.959,0.9649,0.9651,0,0,0,0,0,0,0.9772,0.9763,0.9737,0.9734,0.9734,0.9701,0.9695,0.9691,0.9655,0.9648,0.9658,0.9653,0.9616,0.9613,0.9611,0.9646,0.959,0.959,0.959,0.9647,0.965,0.9651,0,0,0,0,0,0,0.9773,0.977,0.9739,0.9748,0.9742,0.9702,0.9699,0.9691,0.9686,0.9649,0.9641,0.966,0.9615,0.9611,0.9621,0.9643,0.959,0.959,0.9645,0.9648,0.965,0.9716,0,0,0,0,0,0,0.9774,0.9771,0.9782,0.9748,0.9742,0.975,0.9701,0.9692,0.9686,0.968,0.9649,0.9643,0.9613,0.9621,0.962,0.9642,0.959,0.9643,0.9647,0.965,0.9712,0.972,0.9728,0,0,0,0,0,0.9776,0.9803,0.9783,0.9781,0.9756,0.9751,0.9748,0.9712,0.9688,0.9699,0.9675,0.9644,0.9641,0.9623,0.9621,0.9643,0.9642,0.9646,0.9649,0.9708,0.9719,0.9728,0,0,0,0,0,0,0.9842,0.9798,0.9776,0.9793,0.9776,0.974,0.9753,0.9725,0.9715,0.971,0.9667,0.9661,0.9676,0.966,0.9641,0.9672,0.9636,0.964,0.9682,0.9692,0.97,0.9703,0.9589,0,0,0,0,0,0.9858,0.9858,0.982,0.9838,0.9831,0.9794,0.9791,0.9765,0.9746,0.9739,0.9715,0.9699,0.9694,0.9692,0.9685,0.9709,0.9701,0.9723,0.9731,0.9738,0.9742,0.9753,0.9762,0.9664,0.9664,0.9664,0,0,0.9892,0.9868,0.9871,0.9851,0.9835,0.9836,0.9788,0.9791,0.9792,0.9739,0.9747,0.9729,0.9707,0.9724,0.973,0.9711,0.9767,0.9743,0.9749,0.9749,0.9758,0.9767,0.9776,0.9667,0.9666,0.9666,0,0,0.9955,0.9937,0.995,0.9935,0.9911,0.9886,0.989,0.9858,0.9844,0.985,0.9811,0.9811,0.9804,0.979,0.9782,0.984,0.981,0.9839,0.9882,0.9893,0.9901,0.9908,0.9928,0.9936,0.9843,0.9843,0.9843,0,1.0001,1.0,0.9961,0.9966,0.9959,0.9911,0.9925,0.9912,0.9888,0.9884,0.9863,0.9853,0.9835,0.9848,0.9862,0.9857,0.986,0.9842,0.9903,0.9909,0.9915,0.9934,0.9942,0.9846,0.9846,0.9846,0.9845,0,1.0057,1.0057,1.0071,1.0049,1.0043,1.0052,1.0015,1.0014,0.9989,0.9966,0.9974,0.995,0.9938,0.9939,0.9915,0.9949,0.9938,0.9911,0.9874,0.9929,0.9946,0.9953,0.9852,0.985,0.9849,0.9848,0,0,1.016,1.0116,1.0122,1.0111,1.0081,1.008,1.0088,1.0076,1.0075,1.006,1.0066,1.006,1.0035,1.0026,1.0,1.001,1.0057,0.9981,0.998,0.9996,1.0092,1.0113,1.0122,1.0037,1.0038,1.0039,1.0094,0,1.0218,1.0227,1.0193,1.0212,1.0211,1.0166,1.0172,1.0155,1.0134,1.0131,1.0108,1.0105,1.0071,1.0066,1.0073,1.0049,1.0075,1.0045,1.0042,1.0042,1.0049,1.0131,1.0153,1.0206,1.0101,1.0102,1.0102,0,1.0285,1.0273,1.0292,1.0261,1.026,1.0266,1.0252,1.025,1.0229,1.0213,1.0203,1.0172,1.0178,1.0143,1.015,1.013,1.0126,1.0114,1.0115,1.0114,1.0076,1.0132,1.0222,1.023,1.0113,1.0112,1.0111,0,1.0359,1.0348,1.0357,1.0349,1.0313,1.0319,1.0304,1.0282,1.0277,1.0265,1.0261,1.025,1.0244,1.0236,1.0203,1.018,1.0214,1.0176,1.0201,1.0202,1.021,1.021,1.0301,1.0208,1.0208,1.0208,1.0207,0,1.0426,1.044,1.039,1.0396,1.041,1.037,1.0384,1.0365,1.0346,1.0348,1.0308,1.031,1.0266,1.0264,1.0238,1.0248,1.0246,1.0233,1.0226,1.0237,1.0238,1.0234,1.023,1.021,1.0209,1.0209,1.0208,0,1.0511,1.0478,1.0486,1.0451,1.0442,1.0454,1.0424,1.0429,1.0405,1.0408,1.0406,1.0369,1.0364,1.0331,1.0318,1.0301,1.032,1.0306,1.0327,1.0323,1.0349,1.0347,1.0441,1.0451,1.0352,1.0353,1.0353,0,1.0556,1.0565,1.0532,1.053,1.0517,1.0514,1.0509,1.047,1.0466,1.0443,1.045,1.0442,1.0433,1.0428,1.04,1.0391,1.0376,1.0409,1.0374,1.0385,1.0376,1.0376,1.0377,1.0417,1.0418,1.0419,1.042,0,1.064,1.0623,1.0616,1.0604,1.0599,1.0587,1.0573,1.0574,1.0531,1.0529,1.0523,1.0517,1.0504,1.0496,1.0482,1.0467,1.0437,1.0431,1.0436,1.0448,1.046,1.0454,1.0348,1.0429,1.0428,1.0428,1.0427,1.0427,1.0706,1.0712,1.0689,1.0683,1.0669,1.0657,1.0659,1.0635,1.063,1.0616,1.0594,1.0592,1.0571,1.0548,1.0535,1.0533,1.0515,1.0523,1.0525,1.0528,1.0533,1.046,1.053,1.053,1.053,1.0529,1.0529,0,1.0788,1.0771,1.0766,1.0748,1.0743,1.0714,1.0698,1.0696,1.0694,1.0677,1.0669,1.0663,1.0655,1.0627,1.0616,1.062,1.0606,1.0619,1.0618,1.0615,1.055,1.0546,1.063,1.063,1.063,1.063,1.063,1.063,1.083,1.0839,1.0819,1.0821,1.0803,1.0801,1.0794,1.0782,1.0768,1.0763,1.0756,1.0738,1.0716,1.0704,1.0695,1.0687,1.0685,1.0703,1.069,1.0629,1.062,1.061,1.0607,1.0703,1.0703,1.0756,1.0756,1.0756]},{"header":{"parameterUnit":"m.s-1","parameterCategory":1,"la1":30.2991,"la2":30.254,"lo1":-89.0895,"lo2":-89.0444,"dy":0.0017,"dx":0.0017,"nx":28,"ny":28,"refTime":"2025-03-18T21:00:00:Z","depth":0,"parameterNumber":3,"parameterNumberName":"V-component_of_WINDS"},"data":[0,0,0,0,0,0,0,0,0,0,0,0,0,0,0,0,0,0,0,0,0,0,0,0,0,0,0,0,0,0,0,0,0,0,0,0,0,0,0,0,0,0,0,0,0,0,0,0,0,0,0,0,0,0,0,0,0,0,6.3214,6.3216,0,6.3424,6.3427,6.3429,6.3456,6.3454,6.3452,6.345,6.3657,6.3664,6.3672,0,0,0,0,0,0,0,0,0,0,0,0,0,6.2828,6.2835,6.3214,6.3217,6.3219,6.3424,6.3427,6.343,6.3456,6.3454,6.3451,6.3449,6.3655,6.3663,6.3672,0,0,0,0,0,0,0,0,0,0,0,0,0,6.3013,6.2838,6.3214,6.3257,6.3263,6.3423,6.3427,6.343,6.3456,6.3453,6.345,6.3448,6.3652,6.3663,6.3673,6.3802,0,0,6.3707,6.3712,0,0,0,0,0,0,0,0,6.3002,6.3027,6.3248,6.3255,6.3262,6.3411,6.3367,6.3555,6.3457,6.3383,6.345,6.3446,6.3577,6.3594,6.364,6.3812,6.3821,6.3708,6.3715,6.372,6.3723,0,0,0,0,0,0,0,6.2989,6.3018,6.3297,6.3251,6.326,6.3264,6.3287,6.3403,6.3494,6.3389,6.3392,6.3417,6.358,6.3629,6.3645,6.3824,6.3708,6.3718,6.3725,6.3729,6.4112,6.4115,0,0,0,0,0,0,6.297,6.3007,6.329,6.3303,6.3122,6.3273,6.3299,6.3366,6.3493,6.351,6.3419,6.3417,6.3612,6.3632,6.3652,6.3812,6.372,6.373,6.3736,6.4108,6.4112,6.4116,0,0,0,0,0,0,6.2961,6.2995,6.3282,6.3156,6.3193,6.3283,6.3358,6.3372,6.3421,6.3516,6.3531,6.3453,6.361,6.3637,6.3765,6.382,6.3735,6.3745,6.4104,6.411,6.4114,6.4132,0,0,0,0,0,0,6.295,6.2991,6.3043,6.3157,6.32,6.3394,6.3361,6.3378,6.3441,6.344,6.3551,6.3567,6.361,6.3749,6.3776,6.3833,6.3754,6.41,6.4106,6.4113,6.4127,6.4137,6.4146,0,0,0,0,0,6.2936,6.3038,6.3046,6.308,6.3266,6.3397,6.3421,6.3471,6.3445,6.3497,6.3557,6.3563,6.3809,6.3762,6.3793,6.3854,6.4096,6.4105,6.4112,6.4123,6.4135,6.4146,0,0,0,0,0,0,6.2925,6.3053,6.3064,6.3206,6.329,6.3401,6.3468,6.3482,6.3574,6.3569,6.3624,6.3649,6.3775,6.3827,6.3772,6.3985,6.395,6.3964,6.3947,6.396,6.3969,6.3954,6.3763,0,0,0,0,0,6.2939,6.3037,6.3143,6.3258,6.33,6.3377,6.3435,6.3466,6.3555,6.3591,6.3661,6.3745,6.3841,6.3903,6.3996,6.4134,6.4158,6.4191,6.4201,6.4208,6.422,6.4297,6.4313,6.4142,6.4142,6.4142,0,0,6.2969,6.3052,6.311,6.3258,6.3327,6.3425,6.3407,6.3511,6.3583,6.3605,6.3733,6.3787,6.3884,6.4018,6.408,6.4065,6.4273,6.4218,6.4223,6.4232,6.4307,6.4323,6.4337,6.4148,6.4147,6.4146,0,0,6.3075,6.3147,6.3252,6.3322,6.3428,6.3479,6.3503,6.3613,6.365,6.3779,6.3798,6.3883,6.4048,6.4117,6.4173,6.4305,6.4313,6.4333,6.4383,6.4457,6.4471,6.4483,6.453,6.4547,6.4345,6.4345,6.4345,0,6.3098,6.325,6.3302,6.3408,6.3472,6.3499,6.3604,6.3668,6.3798,6.3841,6.3823,6.4031,6.4098,6.4248,6.4281,6.4325,6.4354,6.4321,6.4465,6.4478,6.449,6.4536,6.4553,6.4347,6.4346,6.4346,6.4346,0,6.3273,6.3377,6.3448,6.3577,6.3649,6.3753,6.382,6.3886,6.391,6.3961,6.4091,6.4173,6.4284,6.4322,6.4345,6.4476,6.4463,6.4454,6.442,6.4507,6.4551,6.4569,6.4349,6.4349,6.4348,6.4348,0,0,6.3378,6.3536,6.3561,6.362,6.3739,6.3819,6.3923,6.4035,6.4091,6.4179,6.4267,6.4406,6.4399,6.4463,6.4494,6.4559,6.4659,6.4542,6.4545,6.4561,6.4807,6.4814,6.4834,6.4665,6.4668,6.4671,6.4799,0,6.3498,6.3689,6.3739,6.39,6.3997,6.4023,6.4114,6.4196,6.4246,6.4333,6.4388,6.4486,6.4469,6.4508,6.4573,6.4633,6.4709,6.4624,6.4746,6.475,6.4722,6.4857,6.4864,6.4981,6.4817,6.482,6.4822,0,6.3664,6.3759,6.393,6.4038,6.408,6.4161,6.4268,6.4351,6.4443,6.4475,6.4547,6.4573,6.468,6.464,6.4788,6.473,6.4782,6.4818,6.4824,6.4838,6.4792,6.4875,6.502,6.5038,6.4849,6.4847,6.4845,0,6.3724,6.3895,6.402,6.4069,6.4197,6.4254,6.4309,6.4399,6.4463,6.4554,6.4596,6.4697,6.4753,6.483,6.4882,6.4847,6.5025,6.4989,6.5054,6.5053,6.5091,6.5088,6.5248,6.5123,6.5123,6.5123,6.5122,0,6.3853,6.3957,6.4049,6.4126,6.4242,6.4298,6.4411,6.4467,6.4546,6.4633,6.466,6.474,6.4803,6.4891,6.4931,6.5048,6.5072,6.51,6.511,6.5098,6.5095,6.5134,6.5128,6.5127,6.5126,6.5125,6.5125,0,6.3941,6.4007,6.4145,6.4256,6.4286,6.4367,6.446,6.4535,6.4586,6.4695,6.4724,6.4803,6.4908,6.4967,6.5098,6.5125,6.5255,6.526,6.5225,6.5229,6.5291,6.5285,6.5482,6.5511,6.5366,6.5368,6.5369,0,6.402,6.4101,6.4221,6.4283,6.434,6.4438,6.4504,6.4562,6.4629,6.474,6.4801,6.4908,6.4997,6.5163,6.523,6.533,6.5338,6.5401,6.5353,6.534,6.534,6.5335,6.5344,6.5409,6.541,6.5411,6.5412,0,6.4153,6.4182,6.4278,6.4385,6.4464,6.455,6.4636,6.4683,6.4755,6.4828,6.4938,6.5007,6.5142,6.5247,6.5353,6.5407,6.5421,6.5426,6.5447,6.5437,6.5414,6.5428,6.5248,6.5422,6.5421,6.542,6.542,6.5419,6.424,6.4313,6.441,6.4516,6.4587,6.4666,6.4742,6.4804,6.4897,6.5014,6.504,6.5155,6.5244,6.5388,6.5445,6.5534,6.5523,6.5552,6.5559,6.5566,6.5569,6.5399,6.5553,6.5553,6.5553,6.5553,6.5553,0,6.4375,6.4439,6.4536,6.4656,6.4739,6.4748,6.4843,6.491,6.5012,6.5096,6.5184,6.5308,6.5411,6.5487,6.5591,6.5648,6.5657,6.5673,6.567,6.5682,6.5573,6.5545,6.5664,6.5664,6.5664,6.5664,6.5664,6.5664,6.4455,6.4581,6.4621,6.4781,6.4843,6.4959,6.5012,6.5085,6.5152,6.5292,6.5378,6.5428,6.5508,6.5619,6.5712,6.5732,6.5769,6.5785,6.5805,6.5702,6.569,6.5678,6.5653,6.5792,6.5792,6.5907,6.5908,6.5909]}]]